Location: Bédeille
(43.0872°N, 1.1041°E)
Time: 01:57:42
(UTC+00:00)

Meteor 1-27 - Pass Details

Date: 03 February 2023
Orbit: 836 x 893 km, 81.3° (Epoch: 27 March)

Event Time Altitude Azimuth Distance (km) Brightness Sun altitude
Rises 18:55:58 0° 348° (NNW) 3,495 7.5 -19.5°
Reaches altitude 10° 18:58:26 10° 348° (NNW) 2,545 6.8 -20.0°
Maximum altitude 19:04:13 80° 263° (W) 888 4.3 -21.0°
Drops below altitude 10° 19:09:53 10° 176° (S) 2,489 6.6 -22.1°
Sets 19:12:16 0° 176° (S) 3,413 7.3 -22.5°
